Home   Weather   Changsha   Past weeks
Flag for China

Past Weather in Changsha, Hunan, China — Yesterday and Last 2 Weeks

Now
82 °F

Clear.


Feels Like: 82 °F
Forecast: 69 / 47 °F
Wind: 3 mph from South

Location: Changsha

Current Time: Mar 20, 2019 at 7:40:00 pm

Latest Report: Mar 20, 2019 at 7:00 pm


Visibility: 10 mi

Pressure: 29.59 "Hg

Humidity: 45%

Dew Point: 59 °F

Location of ChangshaLocation

Past Weather in Changsha — Graph

°F

Changsha Temperature Yesterday

Maximum temperature yesterday: 79 °F (at 3:00 pm)
Minimum temperature yesterday: 50 °F (at 5:00 am)
Average temperature yesterday: 65 °F

High & Low Weather Summary for the Past Weeks

 TemperatureHumidityPressure
High91 °F (Mar 20, 4:00 pm)100% (Mar 6, 3:00 am)30.36 "Hg (Mar 6, 3:00 am)
Low43 °F (Mar 10, 3:00 am)19% (Mar 12, 5:00 pm)29.56 "Hg (Mar 20, 4:00 pm)
Average57 °F75%30.09 "Hg
* Reported Mar 5 6:00 pm — Mar 20 6:00 pm, Changsha. Weather by CustomWeather, © 2019

Note: Actual official high and low records may vary slightly from our data, if they occured in-between our weather recording intervals... More about our weather records

Advertising

Changsha Weather History for the Previous 24 Hours

Scroll right to see more
 ConditionsComfort  
Time TempWeatherWind HumidityBarometerVisibility
6:00 pm
Wed, Mar 20
88 °FSunny.6 mph38%29.56 "Hg10 mi
5:00 pm90 °FSunny.13 mph31%29.56 "Hg10 mi
4:00 pm91 °FSunny.13 mph32%29.56 "Hg10 mi
3:00 pm88 °FSunny.10 mph40%29.59 "Hg10 mi
2:00 pm88 °FPassing clouds.13 mph43%29.62 "HgN/A
1:00 pm88 °FScattered clouds.13 mph40%29.65 "HgN/A
12:00 pm84 °FScattered clouds.15 mph45%29.65 "HgN/A
11:00 am84 °FPassing clouds.20 mph45%29.68 "HgN/A
10:00 am81 °FSunny.17 mph54%29.68 "Hg10 mi
9:00 am77 °FSunny.17 mph57%29.68 "Hg10 mi
8:00 am73 °FSunny.10 mph69%29.65 "Hg10 mi
7:00 am72 °FSunny.8 mph69%29.65 "Hg10 mi
6:00 am72 °FClear.10 mph69%29.62 "Hg10 mi
5:00 am72 °FClear.13 mph69%29.62 "Hg10 mi
4:00 am72 °FClear.10 mph69%29.62 "Hg10 mi
3:00 am70 °FClear.8 mph73%29.62 "Hg10 mi
2:00 am70 °FClear.8 mph73%29.65 "Hg10 mi
1:00 am70 °FClear.10 mph73%29.65 "Hg10 mi
12:00 am72 °FClear.10 mph73%29.68 "Hg10 mi
11:00 pm
Tue, Mar 19
73 °FClear.10 mph69%29.65 "Hg10 mi
10:00 pm73 °FClear.13 mph65%29.68 "Hg10 mi
9:00 pm72 °FPassing clouds.8 mph65%29.68 "HgN/A
8:00 pm72 °FPassing clouds.13 mph61%29.65 "HgN/A
7:00 pm73 °FClear.13 mph57%29.68 "Hg10 mi
Weather by CustomWeather, © 2019

See weather overview